Orbital Elements at Epoch 2459200.5 (2020-Dec-17.0) TDB
Reference: JPL 22 (heliocentric ecliptic J2000)
Element | Value | Uncertainty (1-sigma) | Units |
e | .1745759479205198 | 2.959e-08 | |
a | 2.24324865836877 | 7.3975e-09 | au |
q | 1.851631397412607 | 6.5239e-08 | au |
i | 3.869747598870514 | 3.6155e-06 | deg |
node | 229.3237288368819 | 4.9396e-05 | deg |
peri | 84.95464337628822 | 5.0661e-05 | deg |
M | 279.2202133127288 | 1.3103e-05 | deg |
tp | 2459475.868813389749 (2021-Sep-18.36881339) | 4.5445e-05 | TDB |
period | 1227.197754360133 3.36 | 6.0703e-06 1.662e-08 | d yr |
n | .2933512538797839 | 1.4511e-09 | deg/d |
Q | 2.634865919324932 | 8.6889e-09 | au |
|
| | Orbit Determination Parameters
Additional Information
|